User: anonymous   Login
Location: Unnamed
(48.6007°N, 2.4808°E)
Time: 11:54:00
(UTC+01:00)
Language:

DMSP 5D-2 F13 DEB - Orbit

View from above orbital plane
View from above orbital plane
View from above satellite
View from above satellite

Ground track
Ground track

The orbit data is extracted from the following two-line orbital elements,

1 40564U 95015DX  23332.07689614  .00014012  00000-0  45759-2 0  9993
2 40564  98.6737  13.4431 0025562 118.1109 242.2666 14.38485530450815
Epoch (UTC): 28 November 2023 01:50:43
Eccentricity: 0.0025562
inclination: 98.6737°
perigee height: 745 km
apogee height: 782 km
right ascension of ascending node: 13.4431°
argument of perigee: 118.1109°
revolutions per day: 14.38485530
mean anomaly at epoch: 242.2666°
orbit number at epoch: 45081

The dashed part of the orbit path shows where the satellite is in the earth's shadow,  

DLR